Regional Weather Roundup
Issued by NWS

Home | Current Version | Previous Version | Text Only | Print | Product List | Glossary Off
Versions: 1 2 3 4 5 6 7 8 9 10 11 12 13 14 15 16 17 18 19 20 21 22 23 24 25 26 27 28 29 30 31 32 33 34 35 36 37 38 39 40 41 42 43 44 45 46 47 48 49 50

619
ASUS43 KLMK 281902
RWRKY
KENTUCKY REGIONAL WEATHER ROUNDUP
NATIONAL WEATHER SERVICE LOUISVILLE KY
300 PM EDT WED SEP 28 2016

NOTE "FAIR" INDICATES FEW OR NO CLOUDS BELOW 12,000 FEET
WITH NO SIGNIFICANT WEATHER AND/OR OBSTRUCTIONS TO VISIBILITY.

KYZ001>023-026-027-061>063-070>075-282000-
WESTERN AND SOUTH CENTRAL KENTUCKY

CITY           SKY/WX    TMP DP  RH WIND       PRES   REMARKS
PADUCAH        CLOUDY    73  54  51 N10       29.88R
HENDERSON      PTSUNNY   68  54  60 NW10      29.87S
OWENSBORO      CLOUDY   N/A N/A N/A NW12      29.87R
HOPKINSVILLE   CLOUDY    76  55  49 W14       29.84R
BOWLING GREEN  CLOUDY    78  50  37 W14       29.82R
GLASGOW        NOT AVBL
$$

KYZ024-025-028>034-038-045-046-053-282000-
NORTH CENTRAL KENTUCKY

CITY           SKY/WX    TMP DP  RH WIND       PRES   REMARKS
LOUISVILLE/SDF LGT RAIN  61  57  87 SW8       29.85S FOG
LOUISVILLE/LOU LGT RAIN  60  57  89 S5        29.85F FOG
FORT KNOX      LGT RAIN  60  58  92 NW2       29.84F
$$

KYZ035>037-039>044-047>052-055>060-089>105-282000-
NORTHEAST KENTUCKY

CITY           SKY/WX    TMP DP  RH WIND       PRES   REMARKS
LEXINGTON      CLOUDY    68  52  56 N13       29.85S
COVINGTON      RAIN      58  57  97 N6        29.86R FOG
FRANKFORT      HVY RAIN  60  55  83 NW9G22    29.86R
$$

KYZ054-064>069-076>088-106>120-282000-
SOUTHEAST KENTUCKY

CITY           SKY/WX    TMP DP  RH WIND       PRES   REMARKS
JACKSON        SUNNY     79  48  33 VRB6G21   29.87F
LONDON         SUNNY     79  42  26 SW18      29.87F
SOMERSET       CLOUDY    77  45  31 SW12G24   29.86F
MIDDLESBORO    SUNNY     79  47  32 S9        29.91F
MONTICELLO     CLEAR     80  47  31 SW20G32   29.86F
$$





USA.gov is the U.S. government's official web portal to all federal, state and local government web resources and services.